Location: Diati
(11.8376°N, 2.5966°E)
Time: 18:20:48
(UTC+00:00)

ARGOS - Pass Details

Date: 21 September 2020
Orbit: 821 x 834 km, 98.4° (Epoch: 19 October)

Event Time Altitude Azimuth Distance (km) Brightness Sun altitude
Exits shadow 19:57:32 48° 300° (WNW) 1,060 3.9 -32.9°
Drops below altitude 10° 20:01:43 10° 337° (NNW) 2,412 5.9 -33.9°
Sets 20:04:07 0° 341° (NNW) 3,345 6.6 -34.5°
